[[{"header":{"parameterUnit":"m.s-1","parameterCategory":2,"la1":30.2991,"la2":30.254,"lo1":-89.0895,"lo2":-89.0444,"dy":0.0017,"dx":0.0017,"nx":28,"ny":28,"refTime":"2025-08-29T03:00:00:Z","depth":"0","parameterNumber":2,"parameterNumberName":"U-component_of_CURRENTS"},"data":[0,0,0,0,0,0,0,0,0,0,0,0,0,0,0,0,0,0,0,0,0,0,0,0,0,0,0,0,0,0,0,0,0,0,0,0,0,0,0,0,0,0,0,0,0,0,0,0,0,0,0,0,0,0,0,0,0,0,0.2736,0.2737,0,0.2788,0.2789,0.2789,0.2783,0.2782,0.2782,0.2781,0.2946,0.2951,0.2955,0,0,0,0,0,0,0,0,0,0,0,0,0,0.2667,0.2667,0.2736,0.2737,0.2738,0.2788,0.2789,0.2789,0.2783,0.2782,0.2782,0.2781,0.2944,0.295,0.2956,0,0,0,0,0,0,0,0,0,0,0,0,0,0.2703,0.2668,0.2736,0.2743,0.2744,0.2788,0.2789,0.2789,0.2783,0.2782,0.2781,0.2781,0.2942,0.2949,0.2957,0.302,0,0,0.2979,0.2983,0,0,0,0,0,0,0,0,0.2701,0.2705,0.2741,0.2742,0.2744,0.278,0.2825,0.2873,0.2783,0.2766,0.2781,0.278,0.2903,0.2914,0.292,0.3028,0.3035,0.298,0.2985,0.2988,0.299,0,0,0,0,0,0,0,0.2698,0.2703,0.2754,0.2742,0.2744,0.2756,0.2759,0.2833,0.2839,0.2767,0.2767,0.2778,0.2904,0.2913,0.2925,0.3038,0.298,0.2986,0.2991,0.2994,0.3157,0.3157,0,0,0,0,0,0,0.2697,0.2701,0.2752,0.2756,0.2723,0.2758,0.2762,0.2767,0.2836,0.2845,0.2778,0.2777,0.2901,0.2916,0.2931,0.2987,0.2988,0.2995,0.2999,0.3157,0.3157,0.3157,0,0,0,0,0,0,0.2695,0.27,0.275,0.2732,0.2739,0.276,0.2767,0.2769,0.2775,0.2843,0.2854,0.2782,0.2901,0.292,0.2985,0.2995,0.2998,0.3005,0.3157,0.3157,0.3157,0.3116,0,0,0,0,0,0,0.2692,0.2699,0.2708,0.2731,0.274,0.2784,0.2768,0.2771,0.2785,0.2783,0.2851,0.2865,0.2901,0.2974,0.2993,0.3005,0.301,0.3157,0.3157,0.3157,0.3118,0.3115,0.3112,0,0,0,0,0,0.269,0.2705,0.2708,0.2715,0.2749,0.2786,0.2791,0.2801,0.2786,0.28,0.283,0.2863,0.2985,0.2981,0.3003,0.3017,0.3158,0.3157,0.3157,0.3119,0.3115,0.3112,0,0,0,0,0,0,0.268,0.2707,0.271,0.2732,0.2761,0.2786,0.2802,0.2803,0.2834,0.2833,0.2878,0.2896,0.295,0.2991,0.2984,0.3059,0.3072,0.3076,0.3035,0.3032,0.3029,0.3046,0.3017,0,0,0,0,0,0.2683,0.2699,0.2729,0.2748,0.2762,0.278,0.2796,0.2803,0.2833,0.2843,0.2883,0.2925,0.2968,0.3004,0.3053,0.3114,0.3157,0.313,0.3127,0.3125,0.3151,0.3202,0.3207,0.3156,0.3156,0.3156,0,0,0.2684,0.2703,0.2711,0.2747,0.2766,0.279,0.2787,0.2814,0.2829,0.2863,0.2898,0.2927,0.298,0.3028,0.3057,0.3066,0.3159,0.3124,0.3122,0.315,0.3203,0.3208,0.3213,0.3156,0.3156,0.3156,0,0,0.2693,0.2712,0.2726,0.2751,0.2786,0.2803,0.281,0.2837,0.2846,0.289,0.2899,0.2933,0.3011,0.3039,0.3066,0.3085,0.3138,0.3091,0.3104,0.3153,0.3158,0.3163,0.3211,0.3221,0.3094,0.3094,0.3094,0,0.2692,0.2712,0.2739,0.276,0.2777,0.2806,0.2821,0.2847,0.2888,0.2905,0.2901,0.2982,0.3018,0.3073,0.3064,0.3082,0.3119,0.311,0.315,0.3156,0.3162,0.3211,0.3223,0.3092,0.3092,0.3093,0.3093,0,0.2708,0.2727,0.2741,0.2772,0.2797,0.2821,0.2856,0.2882,0.2893,0.2917,0.2969,0.3007,0.3058,0.3058,0.3072,0.3124,0.3138,0.3135,0.3159,0.3165,0.3216,0.3228,0.3089,0.309,0.3091,0.3091,0,0,0.2684,0.2739,0.274,0.2757,0.2801,0.2825,0.2859,0.2902,0.2941,0.2968,0.3015,0.3052,0.3071,0.3101,0.3115,0.3153,0.3206,0.3161,0.3165,0.3212,0.3321,0.3268,0.3277,0.3208,0.321,0.3212,0.3335,0,0.2682,0.2715,0.2742,0.2775,0.2795,0.2833,0.2869,0.2914,0.2964,0.3026,0.3057,0.312,0.3089,0.3123,0.3147,0.3211,0.324,0.3174,0.3309,0.3313,0.3267,0.3291,0.3189,0.3285,0.3347,0.335,0.3351,0,0.2678,0.2701,0.2725,0.278,0.2792,0.2817,0.2887,0.2931,0.3023,0.3069,0.3126,0.3169,0.3235,0.3205,0.3305,0.3266,0.329,0.3323,0.3328,0.3311,0.3285,0.3292,0.3306,0.3241,0.3371,0.337,0.3368,0,0.264,0.2687,0.2703,0.272,0.2787,0.2805,0.2846,0.2934,0.2999,0.3113,0.318,0.3252,0.3316,0.3357,0.3403,0.3371,0.3516,0.3481,0.3453,0.345,0.3409,0.3398,0.3381,0.3543,0.3542,0.3542,0.3542,0,0.2621,0.2635,0.2688,0.2699,0.2736,0.2787,0.2856,0.292,0.3038,0.3122,0.32,0.3283,0.3358,0.3437,0.3452,0.3502,0.3554,0.3477,0.3484,0.3388,0.3374,0.3353,0.3326,0.3547,0.3546,0.3545,0.3544,0,0.2579,0.2611,0.264,0.2699,0.272,0.2748,0.2858,0.2923,0.3039,0.3155,0.3198,0.3344,0.3443,0.3503,0.3604,0.3575,0.3536,0.3617,0.3498,0.3487,0.3366,0.3341,0.3246,0.3145,0.3616,0.3615,0.3615,0,0.2556,0.2568,0.2632,0.265,0.2675,0.2732,0.2779,0.2906,0.2989,0.3178,0.3233,0.3376,0.3446,0.3584,0.3595,0.3635,0.3521,0.3544,0.3447,0.3362,0.3342,0.3203,0.3114,0.3382,0.338,0.3378,0.3377,0,0.2514,0.2541,0.2569,0.2608,0.2647,0.2701,0.2781,0.285,0.2998,0.3084,0.3208,0.3283,0.344,0.3451,0.3517,0.3519,0.3386,0.3503,0.3456,0.3195,0.3008,0.2912,0.3303,0.336,0.3362,0.3363,0.3364,0.3364,0.2472,0.2482,0.2517,0.2551,0.2596,0.2631,0.2631,0.2733,0.2812,0.29,0.3075,0.3127,0.3284,0.3367,0.3355,0.3302,0.3263,0.3215,0.3209,0.3088,0.2924,0.3272,0.33,0.3301,0.3303,0.3303,0.3304,0,0.2386,0.2412,0.2452,0.2471,0.2472,0.2525,0.2593,0.2566,0.2575,0.2727,0.279,0.2926,0.2985,0.3091,0.3145,0.3045,0.289,0.2967,0.2766,0.2704,0.3071,0.2994,0.2906,0.2906,0.2906,0.2906,0.2906,0.2907,0.2335,0.2326,0.2352,0.2318,0.2331,0.2265,0.2258,0.2249,0.2319,0.2359,0.243,0.2555,0.2846,0.3018,0.2973,0.2885,0.266,0.2547,0.2521,0.282,0.2842,0.2863,0.2783,0.2653,0.2652,0.2037,0.2033,0.203]},{"header":{"parameterUnit":"m.s-1","parameterCategory":2,"la1":30.2991,"la2":30.254,"lo1":-89.0895,"lo2":-89.0444,"dy":0.0017,"dx":0.0017,"nx":28,"ny":28,"refTime":"2025-08-29T03:00:00:Z","depth":"0","parameterNumber":3,"parameterNumberName":"V-component_of_CURRENTS"},"data":[0,0,0,0,0,0,0,0,0,0,0,0,0,0,0,0,0,0,0,0,0,0,0,0,0,0,0,0,0,0,0,0,0,0,0,0,0,0,0,0,0,0,0,0,0,0,0,0,0,0,0,0,0,0,0,0,0,0,-0.0132,-0.0133,0,-0.0191,-0.0192,-0.0193,-0.0253,-0.0253,-0.0254,-0.0254,-0.0491,-0.0497,-0.0503,0,0,0,0,0,0,0,0,0,0,0,0,0,-0.0146,-0.0146,-0.0132,-0.0133,-0.0133,-0.019,-0.0192,-0.0193,-0.0253,-0.0253,-0.0254,-0.0255,-0.0489,-0.0496,-0.0503,0,0,0,0,0,0,0,0,0,0,0,0,0,-0.0169,-0.0145,-0.0132,-0.0167,-0.0171,-0.019,-0.0192,-0.0193,-0.0253,-0.0253,-0.0254,-0.0255,-0.0487,-0.0495,-0.0504,-0.0543,0,0,-0.0531,-0.0535,0,0,0,0,0,0,0,0,-0.0168,-0.0169,-0.0162,-0.0165,-0.0169,-0.0212,-0.0283,-0.0318,-0.0253,-0.0225,-0.0254,-0.0255,-0.0411,-0.0426,-0.0438,-0.0554,-0.0565,-0.0532,-0.0537,-0.0541,-0.0543,0,0,0,0,0,0,0,-0.0166,-0.0167,-0.0159,-0.0162,-0.0166,-0.0205,-0.0209,-0.029,-0.032,-0.0228,-0.0232,-0.0232,-0.0415,-0.043,-0.0445,-0.0568,-0.0531,-0.0539,-0.0545,-0.0548,-0.0658,-0.0656,0,0,0,0,0,0,-0.0146,-0.0165,-0.0157,-0.0161,-0.0166,-0.0203,-0.0208,-0.02,-0.0315,-0.0331,-0.0231,-0.0234,-0.0414,-0.0435,-0.0454,-0.047,-0.0541,-0.0549,-0.0554,-0.0661,-0.0658,-0.0655,0,0,0,0,0,0,-0.0146,-0.0145,-0.0155,-0.0162,-0.0166,-0.0201,-0.0193,-0.0201,-0.0214,-0.0315,-0.0335,-0.0235,-0.0416,-0.0441,-0.0488,-0.0481,-0.0553,-0.0561,-0.0663,-0.066,-0.0657,-0.0527,0,0,0,0,0,0,-0.0146,-0.0144,-0.0137,-0.016,-0.0164,-0.0159,-0.0192,-0.0202,-0.0211,-0.0216,-0.0325,-0.0348,-0.0418,-0.0474,-0.0497,-0.0495,-0.0568,-0.0666,-0.0662,-0.0658,-0.0534,-0.0519,-0.0507,0,0,0,0,0,-0.0147,-0.0129,-0.0136,-0.0135,-0.015,-0.0158,-0.0164,-0.0196,-0.021,-0.0211,-0.0259,-0.0344,-0.0463,-0.0479,-0.0507,-0.0507,-0.0669,-0.0663,-0.0658,-0.054,-0.0522,-0.0507,0,0,0,0,0,0,-0.0132,-0.0134,-0.0142,-0.0126,-0.0137,-0.0167,-0.017,-0.0187,-0.0224,-0.0232,-0.0324,-0.0349,-0.0383,-0.0452,-0.0468,-0.0518,-0.0577,-0.0577,-0.0478,-0.0463,-0.0449,-0.0448,-0.0575,0,0,0,0,0,-0.0121,-0.011,-0.0121,-0.0109,-0.0111,-0.0138,-0.0146,-0.0162,-0.0194,-0.0211,-0.0277,-0.0339,-0.0382,-0.0426,-0.0479,-0.0523,-0.0567,-0.0534,-0.052,-0.0508,-0.0521,-0.0542,-0.0532,-0.0638,-0.0638,-0.0638,0,0,-0.0113,-0.0112,-0.0107,-0.0106,-0.0119,-0.0111,-0.0146,-0.0149,-0.0145,-0.0235,-0.0255,-0.0299,-0.0376,-0.0403,-0.0427,-0.0467,-0.0494,-0.0502,-0.0491,-0.0511,-0.0535,-0.0525,-0.0516,-0.0635,-0.0635,-0.0636,0,0,-0.0087,-0.0088,-0.0069,-0.0072,-0.0078,-0.009,-0.0084,-0.0106,-0.012,-0.0137,-0.0181,-0.0207,-0.0299,-0.0334,-0.0368,-0.0314,-0.041,-0.0334,-0.0289,-0.0307,-0.03,-0.0294,-0.0309,-0.0306,-0.034,-0.034,-0.034,0,-0.0076,-0.005,-0.0067,-0.005,-0.0043,-0.0073,-0.005,-0.0067,-0.0099,-0.0102,-0.013,-0.0198,-0.0264,-0.0283,-0.0257,-0.0289,-0.0314,-0.0348,-0.0291,-0.0286,-0.0282,-0.0301,-0.0298,-0.0333,-0.0334,-0.0335,-0.0335,0,-0.0036,-0.0016,-0.0005,0.0011,0.0014,0.0028,0.0014,0.001,-0.0009,-0.0024,-0.004,-0.0103,-0.0146,-0.0159,-0.0204,-0.0199,-0.0228,-0.026,-0.0336,-0.0264,-0.0287,-0.0287,-0.0323,-0.0326,-0.0328,-0.033,0,0,-0.0001,0.002,0.0026,0.0047,0.0051,0.0062,0.0071,0.0078,0.0098,0.0053,0.007,0.001,-0.002,-0.0057,-0.0105,-0.0131,-0.011,-0.0183,-0.0187,-0.0205,-0.0148,-0.0157,-0.0159,-0.0133,-0.0133,-0.0133,-0.0166,0,0.0039,0.0089,0.0087,0.0136,0.0165,0.0146,0.016,0.0159,0.0153,0.0159,0.0098,0.0089,0.0018,0.0008,-0.0024,-0.0084,-0.0109,-0.0098,-0.0212,-0.0216,-0.0238,-0.0159,-0.0158,-0.0187,-0.0167,-0.0167,-0.0167,0,0.0087,0.0117,0.017,0.021,0.0221,0.0239,0.0273,0.0285,0.0279,0.0272,0.0248,0.0201,0.0161,0.0095,0.0005,0.0016,-0.0059,-0.0115,-0.0118,-0.0182,-0.0225,-0.0261,-0.0189,-0.0341,-0.0168,-0.0168,-0.0168,0,0.0131,0.018,0.0228,0.024,0.0273,0.0291,0.0308,0.0319,0.0357,0.0348,0.0372,0.0303,0.0287,0.018,0.0056,0.0033,-0.0039,-0.0085,-0.0167,-0.0169,-0.0221,-0.0228,-0.0321,-0.0151,-0.0151,-0.0151,-0.0151,0,0.0184,0.0224,0.0252,0.0278,0.0342,0.0342,0.0411,0.0417,0.0453,0.0516,0.0434,0.0468,0.0308,0.0242,0.0105,-0.0019,-0.0004,-0.0149,-0.0174,-0.0171,-0.0173,-0.0354,-0.0451,-0.0152,-0.0152,-0.0152,-0.0151,0,0.0227,0.0242,0.0303,0.0344,0.0365,0.0411,0.0489,0.0549,0.0558,0.064,0.0641,0.0608,0.0517,0.0349,0.0195,0.0065,-0.0158,-0.0124,-0.0107,-0.013,-0.0355,-0.0444,-0.0594,-0.0656,-0.0217,-0.0218,-0.0218,0,0.0255,0.0288,0.0355,0.0404,0.0426,0.0496,0.0558,0.0598,0.0681,0.0735,0.0794,0.0729,0.0717,0.0487,0.023,-0.0006,-0.0166,-0.0157,-0.0209,-0.0356,-0.0475,-0.0544,-0.059,-0.0219,-0.022,-0.022,-0.022,0,0.0311,0.0327,0.0377,0.0477,0.055,0.0643,0.0737,0.0821,0.0881,0.0948,0.1038,0.1029,0.0799,0.0582,0.0248,0.0069,-0.0268,-0.0169,-0.0328,-0.0488,-0.0564,-0.0637,-0.021,-0.0222,-0.0222,-0.0222,-0.0222,-0.0222,0.0355,0.0401,0.0468,0.0567,0.0659,0.0787,0.0878,0.099,0.1123,0.1239,0.1226,0.1249,0.0904,0.0454,0.0189,-0.029,-0.0302,-0.0433,-0.0528,-0.0583,-0.065,-0.0221,-0.0258,-0.0258,-0.0258,-0.0258,-0.0258,0,0.0422,0.0474,0.0564,0.0684,0.08,0.0835,0.1004,0.1104,0.1268,0.1376,0.1443,0.1305,0.0873,0.042,-0.0227,-0.0573,-0.0706,-0.0767,-0.0878,-0.0906,-0.053,-0.0537,-0.0627,-0.0626,-0.0626,-0.0626,-0.0626,-0.0626,0.0462,0.0555,0.0601,0.079,0.0882,0.1044,0.1146,0.1286,0.1402,0.1546,0.1584,0.158,0.1248,0.0064,-0.0722,-0.091,-0.1164,-0.1235,-0.1341,-0.1107,-0.1084,-0.1061,-0.109,-0.1294,-0.1295,-0.1668,-0.1673,-0.1676]}],[{"header":{"parameterUnit":"m.s-1","parameterCategory":2,"la1":30.2991,"la2":30.254,"lo1":-89.0895,"lo2":-89.0444,"dy":0.0017,"dx":0.0017,"nx":28,"ny":28,"refTime":"2025-08-29T03:00:00:Z","depth":"2","parameterNumber":2,"parameterNumberName":"U-component_of_CURRENTS"},"data":[0,0,0,0,0,0,0,0,0,0,0,0,0,0,0,0,0,0,0,0,0,0,0,0,0,0,0,0,0,0,0,0,0,0,0,0,0,0,0,0,0,0,0,0,0,0,0,0,0,0,0,0,0,0,0,0,0,0,0.2244,0.2245,0,0.2299,0.23,0.23,0.2312,0.2311,0.2311,0.2311,0.2513,0.2519,0.2524,0,0,0,0,0,0,0,0,0,0,0,0,0,0.2182,0.2183,0.2244,0.2245,0.2246,0.2299,0.23,0.23,0.2312,0.2311,0.2311,0.2311,0.2511,0.2518,0.2524,0,0,0,0,0,0,0,0,0,0,0,0,0,0.2217,0.2183,0.2244,0.2261,0.2263,0.2299,0.23,0.23,0.2312,0.2311,0.2311,0.2311,0.2509,0.2517,0.2525,0.2579,0,0,0.255,0.2554,0,0,0,0,0,0,0,0,0.2215,0.2219,0.2257,0.226,0.2263,0.2301,0.2352,0.2402,0.2312,0.229,0.2311,0.2311,0.2459,0.2471,0.2475,0.2589,0.2597,0.2551,0.2556,0.256,0.2562,0,0,0,0,0,0,0,0.2212,0.2217,0.2263,0.2259,0.2262,0.2277,0.2281,0.2361,0.2374,0.2292,0.2293,0.2305,0.246,0.2466,0.248,0.26,0.2551,0.2558,0.2563,0.2567,0.2713,0.2712,0,0,0,0,0,0,0.2211,0.2214,0.2261,0.2265,0.2242,0.2279,0.2283,0.2286,0.237,0.2383,0.2305,0.2305,0.2452,0.247,0.2487,0.2566,0.256,0.2567,0.2572,0.2714,0.2713,0.2712,0,0,0,0,0,0,0.2209,0.2214,0.2259,0.2244,0.2251,0.228,0.2284,0.2288,0.2298,0.238,0.2394,0.2312,0.2453,0.2476,0.2533,0.2574,0.2571,0.2579,0.2715,0.2714,0.2712,0.2719,0,0,0,0,0,0,0.2207,0.2213,0.2222,0.2244,0.2252,0.2283,0.2284,0.2289,0.2307,0.2308,0.2392,0.2409,0.2455,0.252,0.2541,0.2585,0.2585,0.2717,0.2715,0.2713,0.272,0.2717,0.2716,0,0,0,0,0,0.2204,0.2217,0.2222,0.2228,0.2261,0.2283,0.2289,0.2307,0.2308,0.2314,0.2348,0.2406,0.2523,0.2526,0.2551,0.2599,0.2718,0.2715,0.2713,0.2721,0.2718,0.2716,0,0,0,0,0,0,0.2196,0.2221,0.2226,0.2246,0.2264,0.2287,0.2305,0.2309,0.2339,0.2351,0.2406,0.2426,0.2489,0.2526,0.2528,0.2624,0.2627,0.2629,0.2624,0.2622,0.262,0.2614,0.2592,0,0,0,0,0,0.2198,0.2213,0.2235,0.2252,0.2263,0.2282,0.2297,0.2311,0.2339,0.2351,0.2405,0.2455,0.2498,0.2543,0.259,0.2661,0.2687,0.2697,0.2695,0.2693,0.2699,0.2743,0.2747,0.2704,0.2704,0.2704,0,0,0.2201,0.2218,0.2227,0.2252,0.227,0.2285,0.229,0.232,0.2338,0.2376,0.2426,0.246,0.2507,0.2567,0.2601,0.2612,0.2716,0.269,0.2689,0.2696,0.2741,0.2746,0.275,0.2703,0.2703,0.2703,0,0,0.2211,0.2227,0.2242,0.2255,0.229,0.2303,0.2309,0.2342,0.2362,0.2405,0.2426,0.2467,0.2552,0.2586,0.2613,0.2627,0.2695,0.2649,0.2663,0.2706,0.2711,0.2716,0.2752,0.276,0.2661,0.2661,0.2661,0,0.2216,0.2227,0.225,0.2264,0.2281,0.2306,0.2321,0.2345,0.2392,0.242,0.2422,0.2514,0.2556,0.262,0.261,0.2632,0.2661,0.2678,0.2708,0.2713,0.2717,0.2753,0.2762,0.2661,0.2661,0.2661,0.2661,0,0.2218,0.2239,0.225,0.2272,0.2295,0.2315,0.235,0.2384,0.2412,0.2438,0.2506,0.2545,0.2602,0.2617,0.2623,0.2682,0.2693,0.2695,0.2724,0.2723,0.2759,0.2769,0.2661,0.2661,0.2661,0.2661,0,0,0.2201,0.2243,0.2246,0.2265,0.2301,0.2321,0.2363,0.2408,0.2454,0.2494,0.2553,0.2593,0.2623,0.265,0.2678,0.2709,0.2758,0.2718,0.272,0.2771,0.2858,0.2796,0.28,0.2777,0.2778,0.278,0.2871,0,0.2195,0.222,0.2244,0.2275,0.2295,0.2336,0.2376,0.2428,0.2484,0.2554,0.2594,0.2663,0.2636,0.2686,0.2705,0.2758,0.2783,0.2734,0.2836,0.2839,0.2799,0.2809,0.2617,0.2676,0.288,0.2881,0.2882,0,0.2179,0.2204,0.2229,0.2294,0.2307,0.2331,0.2416,0.2462,0.2558,0.2613,0.2677,0.2721,0.2782,0.2756,0.2833,0.2808,0.2825,0.2847,0.2852,0.28,0.2794,0.2708,0.2686,0.2898,0.2897,0.2896,0.2894,0,0.2148,0.2196,0.2218,0.2231,0.2302,0.2336,0.2383,0.2479,0.2546,0.2667,0.2732,0.2802,0.2865,0.2891,0.2913,0.2894,0.2989,0.2976,0.293,0.2927,0.2785,0.2766,0.3014,0.3014,0.3014,0.3014,0.3013,0,0.2122,0.2143,0.2208,0.2217,0.227,0.2332,0.2415,0.2483,0.2603,0.2677,0.2764,0.2833,0.2902,0.2956,0.2955,0.297,0.3025,0.2936,0.2948,0.2778,0.2758,0.2963,0.2956,0.3017,0.3016,0.3016,0.3015,0,0.2084,0.2115,0.2151,0.2225,0.2256,0.2298,0.2422,0.249,0.2608,0.2714,0.2757,0.2886,0.2956,0.3,0.3068,0.3032,0.3053,0.3036,0.2828,0.2811,0.2953,0.2945,0.3014,0.3013,0.3011,0.301,0.301,0,0.2061,0.2076,0.2152,0.2178,0.221,0.229,0.2352,0.2481,0.255,0.2721,0.2758,0.2884,0.2932,0.3021,0.3006,0.3017,0.304,0.2828,0.274,0.295,0.2955,0.2948,0.2942,0.256,0.2555,0.2552,0.2549,0,0.2022,0.205,0.208,0.2144,0.2197,0.2258,0.2346,0.2397,0.2537,0.2614,0.2705,0.2768,0.2879,0.2815,0.2848,0.2817,0.2812,0.2753,0.3047,0.2581,0.2527,0.2529,0.2537,0.2516,0.252,0.2522,0.2524,0.2525,0.1988,0.1997,0.2042,0.2091,0.2153,0.2189,0.2194,0.2285,0.235,0.2417,0.2553,0.2573,0.2645,0.2596,0.253,0.2488,0.2666,0.2548,0.2557,0.2571,0.2493,0.2439,0.2398,0.2401,0.2403,0.2405,0.2406,0,0.1916,0.1942,0.1989,0.2016,0.2034,0.2103,0.2155,0.213,0.2129,0.2245,0.2294,0.2162,0.2162,0.2215,0.212,0.2137,0.2099,0.2039,0.1972,0.2008,0.204,0.1932,0.1689,0.1686,0.1684,0.1681,0,0,0.1874,0.187,0.1888,0.1871,0.1903,0.1868,0.1859,0.1846,0.1888,0.187,0.1876,0.2063,0.2172,0.1891,0.1881,0.1764,0.186,0.1701,0.229,0.2249,0.2276,0.2364,0.2243,0,0,0,0,0]},{"header":{"parameterUnit":"m.s-1","parameterCategory":2,"la1":30.2991,"la2":30.254,"lo1":-89.0895,"lo2":-89.0444,"dy":0.0017,"dx":0.0017,"nx":28,"ny":28,"refTime":"2025-08-29T03:00:00:Z","depth":"2","parameterNumber":3,"parameterNumberName":"V-component_of_CURRENTS"},"data":[0,0,0,0,0,0,0,0,0,0,0,0,0,0,0,0,0,0,0,0,0,0,0,0,0,0,0,0,0,0,0,0,0,0,0,0,0,0,0,0,0,0,0,0,0,0,0,0,0,0,0,0,0,0,0,0,0,0,0.0063,0.0063,0,0.0015,0.0015,0.0014,-0.0039,-0.004,-0.004,-0.0041,-0.0217,-0.0221,-0.0225,0,0,0,0,0,0,0,0,0,0,0,0,0,0.0045,0.0046,0.0063,0.0063,0.0063,0.0016,0.0015,0.0014,-0.0039,-0.004,-0.004,-0.0041,-0.0216,-0.0221,-0.0226,0,0,0,0,0,0,0,0,0,0,0,0,0,0.0029,0.0046,0.0063,0.0032,0.0029,0.0016,0.0015,0.0014,-0.0039,-0.004,-0.0041,-0.0041,-0.0214,-0.022,-0.0226,-0.0249,0,0,-0.0246,-0.0248,0,0,0,0,0,0,0,0,0.003,0.0029,0.0037,0.0035,0.0031,-0.0004,-0.0056,-0.008,-0.0039,-0.0016,-0.0041,-0.0042,-0.0156,-0.0167,-0.0176,-0.0257,-0.0265,-0.0246,-0.025,-0.0253,-0.0254,0,0,0,0,0,0,0,0.0031,0.003,0.0042,0.0037,0.0033,-0.0001,-0.0004,-0.0061,-0.0085,-0.0018,-0.0021,-0.0022,-0.0159,-0.0169,-0.0181,-0.0268,-0.0246,-0.0252,-0.0255,-0.0258,-0.0329,-0.0327,0,0,0,0,0,0,0.0047,0.0032,0.0043,0.004,0.0031,0.0001,-0.0003,0.0006,-0.0082,-0.0094,-0.0021,-0.0024,-0.0158,-0.0173,-0.0187,-0.0202,-0.0253,-0.0259,-0.0262,-0.0331,-0.0329,-0.0327,0,0,0,0,0,0,0.0047,0.0049,0.0045,0.0036,0.0034,0.0003,0.0012,0.0005,-0.0005,-0.0082,-0.0098,-0.0024,-0.016,-0.0178,-0.0206,-0.021,-0.0261,-0.0267,-0.0333,-0.033,-0.0328,-0.0244,0,0,0,0,0,0,0.0046,0.0049,0.0055,0.0038,0.0035,0.0045,0.0013,0.0005,-0.0003,-0.0008,-0.009,-0.0107,-0.0162,-0.0195,-0.0212,-0.022,-0.0272,-0.0336,-0.0332,-0.0329,-0.0249,-0.0238,-0.0229,0,0,0,0,0,0.0046,0.0064,0.0056,0.0057,0.0047,0.0046,0.0041,0.0014,-0.0002,-0.0,-0.0035,-0.0105,-0.0185,-0.0198,-0.0218,-0.0229,-0.0337,-0.0333,-0.0329,-0.0253,-0.024,-0.0229,0,0,0,0,0,0,0.006,0.006,0.0051,0.0068,0.0061,0.0038,0.0036,0.0021,-0.0004,-0.0013,-0.0083,-0.0101,-0.0127,-0.0175,-0.0188,-0.0232,-0.0273,-0.0272,-0.0208,-0.0197,-0.0188,-0.0179,-0.0277,0,0,0,0,0,0.0068,0.0079,0.0073,0.0085,0.0084,0.0062,0.0056,0.0041,0.0019,0.0007,-0.0046,-0.0093,-0.0124,-0.0156,-0.0196,-0.0226,-0.0263,-0.0241,-0.0231,-0.0223,-0.0225,-0.0253,-0.0247,-0.0313,-0.0313,-0.0313,0,0,0.0075,0.0078,0.0082,0.0088,0.0077,0.0088,0.0056,0.0054,0.0057,-0.0011,-0.0028,-0.0064,-0.0118,-0.0141,-0.0159,-0.0187,-0.0219,-0.0218,-0.021,-0.0217,-0.0248,-0.0242,-0.0237,-0.031,-0.0311,-0.0311,0,0,0.01,0.01,0.0118,0.0118,0.0114,0.0104,0.011,0.0091,0.0076,0.0066,0.0027,0.0004,-0.0062,-0.0093,-0.0117,-0.0077,-0.0159,-0.0096,-0.0059,-0.0086,-0.0081,-0.0078,-0.0105,-0.0105,-0.0101,-0.0101,-0.0101,0,0.0108,0.0134,0.0121,0.014,0.0145,0.0119,0.014,0.0126,0.0101,0.0095,0.0071,0.0015,-0.0037,-0.0054,-0.0036,-0.0061,-0.0087,-0.0104,-0.0075,-0.0073,-0.0071,-0.01,-0.01,-0.0096,-0.0097,-0.0097,-0.0098,0,0.015,0.0166,0.0178,0.0194,0.0198,0.0211,0.0199,0.0193,0.0172,0.0157,0.0138,0.0087,0.0052,0.0034,0.0005,-0.0003,-0.0028,-0.0054,-0.011,-0.0059,-0.0092,-0.0095,-0.009,-0.0091,-0.0093,-0.0094,0,0,0.0179,0.0203,0.0206,0.0225,0.0229,0.024,0.0246,0.0251,0.0265,0.0222,0.0231,0.0179,0.0149,0.0122,0.0078,0.0049,0.0043,0.0006,0.0002,-0.003,-0.0017,-0.004,-0.0046,0.0019,0.0019,0.0019,-0.0042,0,0.0215,0.0263,0.0262,0.0304,0.033,0.0312,0.0325,0.0321,0.0311,0.0312,0.0253,0.0243,0.0183,0.0171,0.0135,0.0071,0.0039,0.0062,-0.0054,-0.0058,-0.0092,-0.0049,-0.0033,-0.0086,-0.0045,-0.0045,-0.0046,0,0.0258,0.0286,0.0334,0.0367,0.0377,0.0394,0.0418,0.043,0.042,0.0411,0.0384,0.034,0.0293,0.0238,0.0136,0.0153,0.0076,0.0019,0.0014,-0.0043,-0.0086,-0.0132,-0.0093,-0.0051,-0.005,-0.005,-0.005,0,0.0292,0.0337,0.0378,0.039,0.0421,0.0435,0.0451,0.0458,0.0491,0.0477,0.0494,0.0421,0.0398,0.029,0.0163,0.0151,0.0049,0.0016,-0.008,-0.0083,-0.0111,-0.0116,-0.0057,-0.0057,-0.0056,-0.0056,-0.0056,0,0.0337,0.037,0.0398,0.0422,0.0479,0.048,0.0542,0.0545,0.0575,0.0628,0.0549,0.0566,0.0411,0.033,0.0197,0.0055,0.0071,-0.0068,-0.0098,-0.0078,-0.008,-0.0086,-0.0089,-0.0059,-0.0058,-0.0058,-0.0057,0,0.037,0.0385,0.044,0.0479,0.0498,0.0539,0.0614,0.067,0.0675,0.074,0.0739,0.0685,0.0571,0.0404,0.0237,0.0114,-0.0031,-0.0089,-0.0057,-0.0082,-0.0156,-0.0153,-0.0199,-0.02,-0.0201,-0.0202,-0.0203,0,0.0393,0.0424,0.0486,0.0531,0.0552,0.0619,0.0679,0.0717,0.0788,0.0816,0.0858,0.0767,0.0719,0.0461,0.022,-0.0018,-0.0045,-0.015,-0.0174,-0.0144,-0.0169,-0.0164,-0.016,-0.0174,-0.0175,-0.0175,-0.0176,0,0.0444,0.0459,0.0507,0.0597,0.0666,0.0756,0.084,0.0911,0.0961,0.1,0.1035,0.0992,0.0745,0.0511,0.0186,0.0025,-0.0114,-0.0166,-0.0139,-0.0139,-0.0126,-0.0149,-0.0145,-0.0179,-0.0179,-0.0178,-0.0178,-0.0178,0.0483,0.0527,0.0589,0.0677,0.0763,0.0878,0.0958,0.1048,0.1146,0.1207,0.1168,0.111,0.0842,0.0429,0.0141,-0.0155,-0.0141,-0.0237,-0.0234,-0.023,-0.0215,-0.0204,-0.0269,-0.0269,-0.0269,-0.0269,-0.027,0,0.054,0.0589,0.0673,0.0779,0.0881,0.0916,0.1061,0.1138,0.1243,0.1295,0.1305,0.1057,0.0782,0.0472,0.0029,-0.0233,-0.0251,-0.0312,-0.0274,-0.0268,-0.0264,-0.0249,-0.0313,-0.0314,-0.0315,-0.0316,0,0,0.0574,0.0657,0.0699,0.0861,0.094,0.1079,0.1161,0.1259,0.1327,0.1368,0.1343,0.1271,0.0891,0.0569,0.0198,-0.0055,-0.0098,-0.0106,-0.0043,0.0051,0.0058,-0.0195,-0.0163,0,0,0,0,0]}],[{"header":{"parameterUnit":"m.s-1","parameterCategory":2,"la1":30.2991,"la2":30.254,"lo1":-89.0895,"lo2":-89.0444,"dy":0.0017,"dx":0.0017,"nx":28,"ny":28,"refTime":"2025-08-29T03:00:00:Z","depth":"4","parameterNumber":2,"parameterNumberName":"U-component_of_CURRENTS"},"data":[0,0,0,0,0,0,0,0,0,0,0,0,0,0,0,0,0,0,0,0,0,0,0,0,0,0,0,0,0,0,0,0,0,0,0,0,0,0,0,0,0,0,0,0,0,0,0,0,0,0,0,0,0,0,0,0,0,0,0.1244,0.1245,0,0.1267,0.1267,0.1267,0.1294,0.1295,0.1296,0.1296,0.116,0.1156,0.1152,0,0,0,0,0,0,0,0,0,0,0,0,0,0.118,0.1181,0.1244,0.1245,0.1245,0.1267,0.1267,0.1267,0.1294,0.1295,0.1296,0.1296,0.1162,0.1157,0.1152,0,0,0,0,0,0,0,0,0,0,0,0,0,0.1204,0.1181,0.1244,0.1263,0.1265,0.1267,0.1267,0.1267,0.1294,0.1295,0.1296,0.1297,0.1163,0.1157,0.1151,0.1095,0,0,0.1132,0.1129,0,0,0,0,0,0,0,0,0.1203,0.1206,0.1259,0.1261,0.1264,0.128,0.1195,0.1203,0.1294,0.1281,0.1296,0.1297,0.1186,0.1178,0.118,0.1089,0.1083,0.1132,0.1128,0.1125,0.1123,0,0,0,0,0,0,0,0.1201,0.1205,0.1252,0.126,0.1262,0.1254,0.1259,0.1197,0.1224,0.1282,0.1285,0.129,0.1186,0.1186,0.1177,0.1081,0.1132,0.1126,0.1122,0.112,0.1219,0.1225,0,0,0,0,0,0,0.1203,0.1204,0.1251,0.1252,0.1237,0.1255,0.126,0.1273,0.1228,0.1224,0.1289,0.1291,0.1197,0.1184,0.1172,0.1222,0.1125,0.1119,0.1116,0.1213,0.1221,0.1228,0,0,0,0,0,0,0.1202,0.1208,0.125,0.1229,0.1235,0.1256,0.1269,0.1273,0.1296,0.1236,0.1228,0.1311,0.1197,0.1181,0.1207,0.1212,0.1117,0.1111,0.1205,0.1215,0.1224,0.1245,0,0,0,0,0,0,0.12,0.1207,0.1227,0.123,0.1236,0.1264,0.1269,0.1273,0.1297,0.13,0.1251,0.1239,0.1196,0.1217,0.1201,0.1202,0.1106,0.1197,0.121,0.1221,0.1236,0.1254,0.1269,0,0,0,0,0,0.1198,0.1213,0.1228,0.1235,0.126,0.1264,0.1266,0.1282,0.1297,0.1307,0.1333,0.1242,0.1283,0.1216,0.1196,0.1194,0.1192,0.1206,0.122,0.1229,0.125,0.1269,0,0,0,0,0,0,0.1187,0.1218,0.1234,0.1258,0.1269,0.127,0.1286,0.1295,0.1321,0.134,0.1289,0.128,0.1309,0.1287,0.1216,0.1286,0.1234,0.1244,0.1248,0.1267,0.1284,0.127,0.1101,0,0,0,0,0,0.1197,0.1228,0.124,0.1263,0.1273,0.1285,0.1295,0.1308,0.1326,0.1339,0.1323,0.134,0.1349,0.1338,0.1341,0.1343,0.1332,0.1357,0.1373,0.1386,0.1379,0.1406,0.142,0.1275,0.1274,0.1274,0,0,0.1202,0.1222,0.1241,0.1265,0.128,0.13,0.1294,0.1319,0.1346,0.1314,0.1364,0.1376,0.1374,0.1407,0.1418,0.138,0.1436,0.1404,0.1413,0.1399,0.1422,0.1435,0.1446,0.1284,0.1283,0.1281,0,0,0.1212,0.1244,0.1269,0.1286,0.1317,0.1326,0.1338,0.1364,0.1388,0.1437,0.1448,0.149,0.1488,0.1498,0.1497,0.1613,0.1527,0.1627,0.1661,0.1688,0.1697,0.1704,0.1729,0.1739,0.1626,0.1626,0.1626,0,0.1217,0.1252,0.1274,0.1298,0.132,0.1342,0.1366,0.139,0.1431,0.1453,0.1471,0.1547,0.1531,0.1563,0.1628,0.163,0.1641,0.1554,0.1697,0.1704,0.1711,0.1734,0.1744,0.1629,0.1628,0.1628,0.1628,0,0.1239,0.1277,0.1292,0.134,0.1362,0.1389,0.1422,0.146,0.1502,0.1525,0.1593,0.1622,0.1664,0.1679,0.1674,0.1731,0.1723,0.1704,0.1609,0.1724,0.1746,0.1755,0.1633,0.1632,0.1631,0.163,0,0,0.1222,0.1295,0.1304,0.1331,0.1391,0.1402,0.1461,0.1502,0.1543,0.1602,0.1655,0.171,0.1735,0.1748,0.1754,0.1777,0.1843,0.1767,0.1767,0.1727,0.1907,0.1799,0.1798,0.1835,0.1836,0.1838,0.1905,0,0.1234,0.1284,0.1323,0.1375,0.1402,0.1449,0.1494,0.1542,0.1598,0.1659,0.1697,0.176,0.1756,0.1794,0.1818,0.1844,0.1868,0.1826,0.1859,0.1861,0.1694,0.1806,0.1843,0.1912,0.1914,0.1916,0.1917,0,0.124,0.1275,0.133,0.1394,0.141,0.1451,0.1527,0.1575,0.1656,0.1707,0.1774,0.1811,0.1876,0.1863,0.1931,0.1906,0.1917,0.1925,0.1927,0.1814,0.1769,0.178,0.1933,0.1932,0.1931,0.193,0.1929,0,0.1202,0.1275,0.1319,0.1345,0.1423,0.1461,0.151,0.1593,0.1646,0.1752,0.1811,0.1878,0.1942,0.1965,0.2,0.1977,0.2061,0.2025,0.1934,0.1927,0.1982,0.1973,0.2066,0.2066,0.2066,0.2066,0.2065,0,0.1185,0.122,0.131,0.1333,0.1387,0.1452,0.1527,0.1586,0.1691,0.1757,0.1841,0.1903,0.1975,0.2027,0.203,0.2018,0.2091,0.1952,0.1939,0.2002,0.1994,0.1989,0.1979,0.2068,0.2068,0.2067,0.2067,0,0.113,0.1195,0.1244,0.1337,0.1372,0.1412,0.1533,0.1582,0.1697,0.1792,0.1835,0.1953,0.2024,0.2068,0.2122,0.2056,0.2053,0.2026,0.211,0.2098,0.1892,0.1885,0.1926,0.1923,0.192,0.1918,0.1916,0,0.1102,0.1128,0.1235,0.1271,0.1319,0.1399,0.1453,0.1575,0.1633,0.1804,0.1833,0.1957,0.2018,0.2011,0.2061,0.206,0.2027,0.2008,0.1927,0.1897,0.188,0.1876,0.1872,0.1912,0.1911,0.191,0.191,0,0.1044,0.1097,0.1139,0.1218,0.1282,0.1341,0.1431,0.1467,0.1608,0.1727,0.1802,0.1843,0.1918,0.1949,0.1968,0.1956,0.2009,0.1979,0.1983,0.1907,0.1879,0.1865,0.1864,0.19,0.1901,0.1902,0.1903,0,0.1003,0.1016,0.1087,0.1145,0.1223,0.1261,0.1317,0.1391,0.1465,0.1648,0.1674,0.1799,0.1913,0.1898,0.1914,0.19,0.1857,0.1775,0.1789,0.18,0.1723,0.1667,0.1621,0,0,0,0,0,0.0957,0.0964,0.101,0.1067,0.1142,0.119,0.1291,0.1352,0.1492,0.1507,0.1588,0.1652,0.1698,0.176,0.1717,0.1839,0.1852,0.1779,0.1761,0.1847,0.1858,0.1777,0,0,0,0,0,0,0.0923,0.0958,0.0977,0.0996,0.1026,0.1094,0.1155,0.1246,0.126,0.1409,0.1444,0.1554,0.1619,0.1713,0.1689,0.1704,0.1657,0.1856,0.1852,0.1841,0.1851,0.186,0.178,0,0,0,0,0]},{"header":{"parameterUnit":"m.s-1","parameterCategory":2,"la1":30.2991,"la2":30.254,"lo1":-89.0895,"lo2":-89.0444,"dy":0.0017,"dx":0.0017,"nx":28,"ny":28,"refTime":"2025-08-29T03:00:00:Z","depth":"4","parameterNumber":3,"parameterNumberName":"V-component_of_CURRENTS"},"data":[0,0,0,0,0,0,0,0,0,0,0,0,0,0,0,0,0,0,0,0,0,0,0,0,0,0,0,0,0,0,0,0,0,0,0,0,0,0,0,0,0,0,0,0,0,0,0,0,0,0,0,0,0,0,0,0,0,0,0.0148,0.0148,0,0.0129,0.0128,0.0128,0.0112,0.0112,0.0112,0.0112,0.019,0.0192,0.0194,0,0,0,0,0,0,0,0,0,0,0,0,0,0.0133,0.0133,0.0148,0.0148,0.0148,0.0129,0.0128,0.0128,0.0112,0.0112,0.0112,0.0112,0.0189,0.0192,0.0194,0,0,0,0,0,0,0,0,0,0,0,0,0,0.0127,0.0133,0.0148,0.0139,0.0138,0.0129,0.0128,0.0128,0.0112,0.0112,0.0112,0.0112,0.0189,0.0192,0.0195,0.0214,0,0,0.0204,0.0206,0,0,0,0,0,0,0,0,0.0128,0.0128,0.014,0.014,0.0139,0.0124,0.0152,0.0162,0.0112,0.012,0.0112,0.0112,0.0179,0.0182,0.0174,0.0217,0.0221,0.0204,0.0206,0.0208,0.0209,0,0,0,0,0,0,0,0.0128,0.0128,0.0138,0.014,0.0139,0.0123,0.0122,0.0153,0.015,0.0119,0.0118,0.0119,0.0178,0.0171,0.0177,0.0222,0.0204,0.0207,0.0209,0.021,0.0218,0.0216,0,0,0,0,0,0,0.0137,0.0129,0.0139,0.0138,0.0135,0.0124,0.0123,0.0127,0.0147,0.015,0.0119,0.0119,0.0166,0.0173,0.0179,0.0197,0.0208,0.0211,0.0212,0.022,0.0218,0.0216,0,0,0,0,0,0,0.0136,0.0138,0.014,0.0134,0.0134,0.0124,0.0129,0.0127,0.0125,0.0147,0.0151,0.012,0.0166,0.0175,0.0184,0.0201,0.0212,0.0215,0.0222,0.0219,0.0217,0.0238,0,0,0,0,0,0,0.0136,0.0138,0.0143,0.0135,0.0134,0.0142,0.0129,0.0127,0.0126,0.0125,0.0149,0.0156,0.0167,0.0179,0.0187,0.0205,0.0217,0.0224,0.0221,0.0218,0.0239,0.0236,0.0234,0,0,0,0,0,0.0136,0.0148,0.0143,0.0144,0.0142,0.0143,0.0141,0.0132,0.0126,0.0129,0.0123,0.0155,0.0164,0.018,0.019,0.021,0.0225,0.0221,0.0218,0.024,0.0237,0.0234,0,0,0,0,0,0,0.0145,0.0147,0.0142,0.0154,0.0151,0.0141,0.0144,0.0137,0.0132,0.0133,0.0145,0.015,0.0161,0.0169,0.0186,0.0193,0.0197,0.0195,0.021,0.0207,0.0205,0.0223,0.022,0,0,0,0,0,0.0149,0.0157,0.0154,0.0163,0.0164,0.0153,0.0152,0.0148,0.0144,0.0141,0.0151,0.0152,0.0151,0.0167,0.0169,0.0189,0.0175,0.0198,0.0196,0.0194,0.0209,0.0176,0.0173,0.0204,0.0204,0.0204,0,0,0.0155,0.0157,0.0161,0.0165,0.0161,0.0169,0.0152,0.0157,0.0162,0.0155,0.0163,0.0151,0.0149,0.0155,0.0161,0.0171,0.0171,0.0189,0.0188,0.0204,0.0172,0.0169,0.0167,0.0201,0.0202,0.0202,0,0,0.0174,0.0173,0.0186,0.0187,0.0188,0.0183,0.0188,0.0181,0.0176,0.0178,0.016,0.0148,0.0165,0.0156,0.0156,0.014,0.0152,0.0141,0.0163,0.013,0.0129,0.0127,0.009,0.0085,0.0148,0.0148,0.0148,0,0.0181,0.0197,0.019,0.0202,0.0208,0.0193,0.0209,0.0202,0.0197,0.0196,0.0185,0.0164,0.0165,0.0163,0.0148,0.0142,0.012,0.0185,0.0131,0.0129,0.0127,0.0089,0.0084,0.0149,0.0149,0.0149,0.0149,0,0.0207,0.022,0.0229,0.024,0.0244,0.0255,0.025,0.0249,0.024,0.0232,0.0221,0.0194,0.0185,0.0173,0.0165,0.015,0.0136,0.0128,0.0151,0.0126,0.0086,0.008,0.015,0.015,0.0149,0.0149,0,0,0.0225,0.0244,0.0247,0.0261,0.0266,0.0275,0.0282,0.0287,0.0297,0.0272,0.0274,0.0245,0.0226,0.022,0.0197,0.0169,0.0126,0.015,0.0148,0.0134,0.0049,0.0038,0.003,0.0112,0.0112,0.0111,0.0021,0,0.0248,0.0281,0.0283,0.0314,0.0331,0.0324,0.0335,0.0335,0.0329,0.0326,0.0286,0.028,0.0246,0.024,0.0205,0.0148,0.0113,0.0151,0.0057,0.0054,0.0066,0.0024,0.0109,0.0017,0.0015,0.0014,0.0014,0,0.0271,0.0292,0.0328,0.0357,0.0364,0.038,0.0398,0.0409,0.0399,0.0392,0.037,0.0339,0.0296,0.0265,0.0164,0.019,0.0125,0.0074,0.0069,0.0055,0.0033,0.0046,0.0002,0.0003,0.0004,0.0005,0.0005,0,0.0287,0.0323,0.0355,0.0364,0.0393,0.0408,0.0424,0.043,0.0452,0.0437,0.0441,0.0381,0.0353,0.0264,0.0156,0.0161,0.0036,0.0027,-0.0048,-0.005,-0.0018,-0.0016,-0.0048,-0.0048,-0.0048,-0.0048,-0.0047,0,0.0307,0.0334,0.0368,0.0386,0.0432,0.044,0.0488,0.0491,0.0507,0.0535,0.0481,0.0473,0.0352,0.0267,0.0165,0.0038,0.0039,-0.0048,-0.0073,-0.0013,-0.0009,-0.0024,-0.002,-0.0051,-0.005,-0.005,-0.0049,0,0.0319,0.0338,0.0381,0.0422,0.0442,0.0477,0.0541,0.0577,0.0579,0.0608,0.0605,0.0538,0.0426,0.0293,0.0141,0.0055,-0.0069,-0.0115,-0.0047,-0.0066,-0.0137,-0.0131,-0.0206,-0.0207,-0.0208,-0.0209,-0.0209,0,0.0328,0.0352,0.0414,0.045,0.0473,0.0533,0.058,0.0612,0.0649,0.0646,0.0655,0.0562,0.0498,0.0276,0.0131,-0.0073,-0.01,-0.017,-0.0149,-0.0136,-0.0153,-0.0146,-0.0139,-0.0211,-0.0211,-0.0211,-0.0211,0,0.035,0.0372,0.0411,0.0486,0.0543,0.0611,0.0673,0.0705,0.0735,0.0736,0.0699,0.0586,0.0455,0.0281,0.0117,-0.0027,-0.0126,-0.018,-0.0179,-0.016,-0.0143,-0.0157,-0.015,-0.0215,-0.0214,-0.0214,-0.0214,0,0.0371,0.0401,0.0455,0.0521,0.0595,0.0662,0.0697,0.0735,0.0769,0.0758,0.0741,0.0603,0.0524,0.0304,0.0155,0.0009,-0.0025,-0.007,-0.0075,-0.0073,-0.0009,0.0034,-0.0007,0,0,0,0,0,0.0389,0.0426,0.0489,0.056,0.0634,0.0679,0.0748,0.0776,0.0798,0.0782,0.0765,0.0645,0.0427,0.0332,0.0185,0.0128,-0.0059,-0.0051,-0.0115,-0.0233,-0.0229,-0.0176,0,0,0,0,0,0,0.0402,0.0459,0.0489,0.0581,0.0637,0.0722,0.0769,0.0786,0.0776,0.0771,0.066,0.0605,0.0394,0.0512,0.0182,0.0137,0.0074,-0.0152,-0.0155,-0.0235,-0.0231,-0.0228,-0.0173,0,0,0,0,0]}]]